[[{"header":{"parameterUnit":"m.s-1","parameterCategory":1,"la1":30.2991,"la2":30.254,"lo1":-89.0895,"lo2":-89.0444,"dy":0.0017,"dx":0.0017,"nx":28,"ny":28,"refTime":"2023-10-13T21:00:00:Z","depth":0,"parameterNumber":2,"parameterNumberName":"U-component_of_WINDS"},"data":[0,0,0,0,0,0,0,0,0,0,0,0,0,0,0,0,0,0,0,0,0,0,0,0,0,0,0,0,0,0,0,0,0,0,0,0,0,0,0,0,0,0,0,0,0,0,0,0,0,0,0,0,0,0,0,0,0,0,4.4247,4.4247,0,4.4274,4.4274,4.4274,4.4251,4.425,4.4249,4.4248,4.4275,4.4276,4.4278,0,0,0,0,0,0,0,0,0,0,0,0,0,4.4177,4.4179,4.4247,4.4247,4.4248,4.4274,4.4274,4.4274,4.4251,4.425,4.4249,4.4248,4.4274,4.4276,4.4278,0,0,0,0,0,0,0,0,0,0,0,0,0,4.4206,4.4179,4.4247,4.4239,4.4239,4.4274,4.4274,4.4275,4.4251,4.425,4.4249,4.4247,4.4274,4.4276,4.4278,4.4322,0,0,4.4286,4.4287,0,0,0,0,0,0,0,0,4.4205,4.4209,4.424,4.424,4.424,4.4258,4.4259,4.429,4.4252,4.4247,4.4248,4.4247,4.427,4.4273,4.4281,4.4323,4.4324,4.4286,4.4287,4.4288,4.4289,0,0,0,0,0,0,0,4.4203,4.4208,4.4258,4.4241,4.424,4.4235,4.4238,4.4265,4.4266,4.4247,4.4245,4.4249,4.427,4.4279,4.4281,4.4324,4.4286,4.4288,4.4289,4.429,4.4407,4.4409,0,0,0,0,0,0,4.4201,4.4206,4.4257,4.4258,4.4218,4.4237,4.424,4.4253,4.4266,4.4266,4.425,4.4248,4.4275,4.4278,4.4282,4.4337,4.4288,4.429,4.4292,4.4406,4.4408,4.441,0,0,0,0,0,0,4.42,4.4206,4.4256,4.4232,4.4238,4.424,4.4255,4.4255,4.4263,4.4268,4.4268,4.4259,4.4274,4.4279,4.4313,4.4337,4.4292,4.4294,4.4404,4.4406,4.4409,4.4445,0,0,0,0,0,0,4.4198,4.4206,4.4222,4.4232,4.4239,4.4286,4.4256,4.4256,4.4268,4.4265,4.4276,4.4277,4.4273,4.431,4.4315,4.434,4.4296,4.4402,4.4405,4.4408,4.4441,4.4448,4.4454,0,0,0,0,0,4.4196,4.423,4.4223,4.4229,4.4259,4.4287,4.4291,4.4287,4.427,4.4287,4.429,4.4277,4.4333,4.4313,4.432,4.4345,4.44,4.4404,4.4408,4.4438,4.4447,4.4454,0,0,0,0,0,0,4.4221,4.4231,4.4223,4.4262,4.4274,4.4283,4.4304,4.4295,4.4312,4.4308,4.4302,4.4305,4.4341,4.4346,4.4324,4.439,4.4364,4.4369,4.4385,4.4393,4.4399,4.4398,4.4298,0,0,0,0,0,4.4231,4.4253,4.426,4.4293,4.43,4.4301,4.4313,4.4309,4.4321,4.4326,4.4332,4.4344,4.4365,4.4379,4.4398,4.4441,4.4445,4.4462,4.4469,4.4474,4.4479,4.4506,4.4514,4.4422,4.4422,4.4422,0,0,4.4252,4.426,4.4274,4.4299,4.4308,4.4332,4.4306,4.4331,4.4349,4.433,4.4364,4.4368,4.4382,4.4422,4.444,4.4427,4.4505,4.4478,4.4483,4.4485,4.451,4.4519,4.4527,4.4425,4.4424,4.4424,0,0,4.4303,4.431,4.434,4.4351,4.4365,4.4366,4.4373,4.4385,4.4388,4.4422,4.4409,4.443,4.4465,4.4477,4.4487,4.4546,4.4535,4.4552,4.4585,4.4612,4.4619,4.4625,4.4649,4.4657,4.4557,4.4557,4.4557,0,4.4327,4.4362,4.4357,4.4385,4.4397,4.4382,4.4414,4.4424,4.4443,4.4453,4.4438,4.4485,4.4493,4.4537,4.4552,4.4559,4.4569,4.4551,4.4618,4.4625,4.4631,4.4653,4.4662,4.4559,4.4559,4.4559,4.4558,0,4.4393,4.4418,4.444,4.4462,4.4477,4.4506,4.4506,4.4522,4.4517,4.452,4.4556,4.4565,4.4588,4.4598,4.4592,4.4642,4.4634,4.4619,4.4594,4.4642,4.4663,4.4672,4.4562,4.4561,4.4561,4.456,0,0,4.446,4.448,4.4489,4.45,4.4516,4.4536,4.4565,4.4588,4.4603,4.4618,4.4644,4.4676,4.4663,4.4675,4.467,4.4693,4.4743,4.4675,4.4676,4.469,4.4802,4.4816,4.4826,4.4736,4.4737,4.4738,4.4802,0,4.4514,4.4566,4.4564,4.4613,4.4638,4.4625,4.4651,4.4664,4.4668,4.469,4.4694,4.4718,4.4697,4.4705,4.4727,4.4732,4.4766,4.4727,4.4762,4.4763,4.4761,4.4836,4.485,4.4909,4.481,4.4812,4.4813,0,4.4584,4.4603,4.4656,4.4671,4.4682,4.4705,4.4728,4.4748,4.4764,4.4765,4.478,4.4773,4.4805,4.4778,4.4822,4.4796,4.481,4.4815,4.4817,4.4822,4.4792,4.4846,4.4928,4.4938,4.4825,4.4824,4.4823,0,4.4632,4.467,4.4708,4.4717,4.4735,4.4753,4.4761,4.4776,4.4791,4.481,4.4821,4.4843,4.4856,4.4874,4.4874,4.4854,4.4921,4.4892,4.4924,4.4925,4.494,4.494,4.5029,4.4945,4.4945,4.4945,4.4945,0,4.4694,4.4727,4.473,4.4753,4.4791,4.4788,4.4825,4.4832,4.4845,4.4871,4.4859,4.4883,4.4881,4.4905,4.4905,4.4944,4.4949,4.4952,4.4953,4.4955,4.4955,4.4966,4.4962,4.4947,4.4947,4.4946,4.4946,0,4.4754,4.4757,4.4798,4.4812,4.4817,4.4845,4.4858,4.488,4.4884,4.4916,4.4923,4.4929,4.4958,4.4959,4.4991,4.4991,4.504,4.5034,4.5035,4.5035,4.5068,4.5066,4.5169,4.5184,4.5088,4.5088,4.5089,0,4.4795,4.4821,4.4839,4.4856,4.4866,4.4892,4.4909,4.4907,4.4924,4.4946,4.4967,4.4994,4.5016,4.5063,4.507,4.5096,4.5092,4.5126,4.5096,4.5098,4.5096,4.5096,4.51,4.5133,4.5134,4.5135,4.5135,0,4.4869,4.4869,4.4893,4.4919,4.4939,4.4958,4.4976,4.499,4.4991,4.5011,4.5041,4.5058,4.5093,4.5121,4.5147,4.5156,4.5147,4.5145,4.5154,4.5158,4.5159,4.5163,4.5054,4.5143,4.5142,4.5142,4.5141,4.5141,4.4923,4.4946,4.4964,4.4992,4.5006,4.5024,4.5047,4.5054,4.5079,4.5108,4.5105,4.5139,4.5156,4.519,4.5201,4.5228,4.5216,4.5229,4.5233,4.5237,4.5242,4.5153,4.5232,4.5232,4.5232,4.5232,4.5231,0,4.4999,4.501,4.5035,4.5062,4.5085,4.5074,4.5095,4.5114,4.5144,4.5162,4.5184,4.522,4.5248,4.5259,4.5287,4.5307,4.5303,4.5314,4.5314,4.5317,4.5249,4.524,4.5317,4.5317,4.5317,4.5317,4.5317,4.5316,4.5041,4.5082,4.5085,4.5133,4.5144,4.5178,4.5191,4.5208,4.5222,4.5263,4.5287,4.5294,4.5309,4.5338,4.5364,4.5367,4.5379,4.5392,4.5393,4.533,4.5321,4.5313,4.5305,4.5394,4.5394,4.5459,4.546,4.546]},{"header":{"parameterUnit":"m.s-1","parameterCategory":1,"la1":30.2991,"la2":30.254,"lo1":-89.0895,"lo2":-89.0444,"dy":0.0017,"dx":0.0017,"nx":28,"ny":28,"refTime":"2023-10-13T21:00:00:Z","depth":0,"parameterNumber":3,"parameterNumberName":"V-component_of_WINDS"},"data":[0,0,0,0,0,0,0,0,0,0,0,0,0,0,0,0,0,0,0,0,0,0,0,0,0,0,0,0,0,0,0,0,0,0,0,0,0,0,0,0,0,0,0,0,0,0,0,0,0,0,0,0,0,0,0,0,0,0,-0.5843,-0.5841,0,-0.5652,-0.565,-0.5648,-0.5649,-0.5652,-0.5654,-0.5657,-0.5453,-0.5445,-0.5438,0,0,0,0,0,0,0,0,0,0,0,0,0,-0.6204,-0.6197,-0.5844,-0.5841,-0.5839,-0.5653,-0.565,-0.5647,-0.5649,-0.5652,-0.5655,-0.5658,-0.5456,-0.5446,-0.5437,0,0,0,0,0,0,0,0,0,0,0,0,0,-0.6033,-0.6195,-0.5844,-0.5817,-0.5813,-0.5653,-0.565,-0.5647,-0.5648,-0.5652,-0.5656,-0.5659,-0.5459,-0.5447,-0.5436,-0.5287,0,0,-0.54,-0.5395,0,0,0,0,0,0,0,0,-0.6043,-0.602,-0.5823,-0.5819,-0.5814,-0.5679,-0.5702,-0.5526,-0.5647,-0.571,-0.5657,-0.5661,-0.5524,-0.5508,-0.5463,-0.5278,-0.5269,-0.5399,-0.5392,-0.5387,-0.5384,0,0,0,0,0,0,0,-0.6055,-0.6028,-0.5768,-0.5821,-0.5815,-0.5813,-0.5793,-0.5669,-0.5598,-0.5705,-0.5705,-0.5683,-0.5522,-0.5474,-0.5458,-0.5266,-0.5399,-0.5389,-0.5382,-0.5377,-0.4951,-0.4947,0,0,0,0,0,0,-0.6073,-0.6038,-0.5774,-0.5762,-0.594,-0.5803,-0.5781,-0.5718,-0.56,-0.5585,-0.568,-0.5683,-0.5492,-0.5472,-0.5451,-0.5271,-0.5387,-0.5376,-0.5369,-0.4956,-0.495,-0.4946,0,0,0,0,0,0,-0.6081,-0.6049,-0.5781,-0.59,-0.5866,-0.5793,-0.5722,-0.5712,-0.5664,-0.558,-0.5567,-0.5644,-0.5495,-0.5468,-0.5329,-0.5264,-0.5371,-0.536,-0.4961,-0.4954,-0.4948,-0.4909,0,0,0,0,0,0,-0.6091,-0.6052,-0.5996,-0.5899,-0.5859,-0.5664,-0.5718,-0.5706,-0.5645,-0.5648,-0.5543,-0.5529,-0.5496,-0.5347,-0.5318,-0.525,-0.5351,-0.4966,-0.4958,-0.495,-0.4916,-0.4902,-0.489,0,0,0,0,0,-0.6104,-0.5991,-0.5994,-0.5962,-0.5788,-0.566,-0.5638,-0.5603,-0.564,-0.5582,-0.5529,-0.5533,-0.5276,-0.5332,-0.53,-0.5228,-0.497,-0.496,-0.4951,-0.4922,-0.4905,-0.4891,0,0,0,0,0,0,-0.6079,-0.5977,-0.5979,-0.5832,-0.5755,-0.5661,-0.5587,-0.5586,-0.5495,-0.5502,-0.5461,-0.5437,-0.5299,-0.5249,-0.5314,-0.5079,-0.5127,-0.5111,-0.5116,-0.51,-0.5087,-0.5102,-0.5341,0,0,0,0,0,-0.6058,-0.5964,-0.5879,-0.5757,-0.5719,-0.566,-0.5603,-0.5583,-0.5501,-0.5468,-0.5404,-0.5322,-0.5223,-0.5159,-0.5063,-0.4909,-0.4886,-0.4843,-0.4831,-0.4821,-0.4806,-0.4723,-0.4703,-0.4914,-0.4914,-0.4914,0,0,-0.601,-0.5943,-0.5886,-0.5751,-0.5689,-0.5592,-0.5632,-0.5527,-0.5454,-0.5451,-0.5318,-0.5268,-0.5174,-0.5028,-0.496,-0.4982,-0.4743,-0.4808,-0.4801,-0.4792,-0.4711,-0.4691,-0.4673,-0.4907,-0.4909,-0.491,0,0,-0.5874,-0.5814,-0.5707,-0.5645,-0.5552,-0.5514,-0.5489,-0.5395,-0.5363,-0.5229,-0.5225,-0.5136,-0.4966,-0.49,-0.4844,-0.4686,-0.4687,-0.4656,-0.4589,-0.4508,-0.4491,-0.4476,-0.4421,-0.4401,-0.4642,-0.4642,-0.4642,0,-0.5826,-0.5682,-0.5651,-0.5546,-0.5487,-0.5483,-0.5373,-0.5314,-0.5193,-0.5152,-0.5179,-0.4968,-0.4904,-0.4743,-0.4705,-0.4659,-0.4628,-0.4667,-0.4497,-0.4481,-0.4467,-0.4413,-0.4393,-0.4639,-0.4639,-0.464,-0.464,0,-0.5628,-0.5528,-0.5452,-0.534,-0.5272,-0.5165,-0.5116,-0.5051,-0.5038,-0.4996,-0.486,-0.4784,-0.4674,-0.4634,-0.4618,-0.4471,-0.4488,-0.4506,-0.4554,-0.4444,-0.4394,-0.4373,-0.4635,-0.4636,-0.4637,-0.4637,0,0,-0.5469,-0.5344,-0.5316,-0.5266,-0.5165,-0.5086,-0.4979,-0.4874,-0.4819,-0.4736,-0.4646,-0.4503,-0.4521,-0.4457,-0.4435,-0.4363,-0.4245,-0.439,-0.4388,-0.4367,-0.4078,-0.4066,-0.4043,-0.4245,-0.4241,-0.4237,-0.4087,0,-0.5323,-0.5137,-0.5107,-0.4942,-0.4849,-0.4845,-0.4752,-0.4679,-0.4638,-0.4552,-0.4505,-0.4406,-0.4435,-0.4398,-0.4327,-0.4274,-0.4186,-0.4284,-0.4159,-0.4155,-0.4183,-0.4016,-0.4001,-0.3863,-0.4066,-0.4063,-0.406,0,-0.5128,-0.5044,-0.4871,-0.4785,-0.4745,-0.4662,-0.4564,-0.4482,-0.4399,-0.4374,-0.4305,-0.4292,-0.4179,-0.4233,-0.4078,-0.4146,-0.4093,-0.4059,-0.4053,-0.404,-0.4101,-0.3999,-0.3817,-0.3797,-0.4029,-0.4031,-0.4033,0,-0.5031,-0.4875,-0.4752,-0.4709,-0.4604,-0.4546,-0.4499,-0.4421,-0.436,-0.4274,-0.4234,-0.4135,-0.4081,-0.4004,-0.3963,-0.4006,-0.3811,-0.3861,-0.3787,-0.3788,-0.3746,-0.3749,-0.3554,-0.3711,-0.3711,-0.3711,-0.3712,0,-0.4872,-0.4766,-0.4708,-0.4632,-0.4513,-0.4479,-0.4362,-0.4316,-0.4247,-0.4161,-0.415,-0.4069,-0.4021,-0.3933,-0.39,-0.3777,-0.3752,-0.3728,-0.3721,-0.373,-0.3733,-0.3694,-0.3703,-0.3706,-0.3707,-0.3708,-0.3709,0,-0.4744,-0.47,-0.4566,-0.4479,-0.4455,-0.4372,-0.4296,-0.4222,-0.4182,-0.4074,-0.4046,-0.3983,-0.3879,-0.3832,-0.3702,-0.368,-0.3541,-0.3539,-0.357,-0.3567,-0.3496,-0.3504,-0.327,-0.3238,-0.3415,-0.3413,-0.3412,0,-0.4645,-0.4564,-0.447,-0.4414,-0.4367,-0.4274,-0.4214,-0.4177,-0.4114,-0.4015,-0.3952,-0.3849,-0.3764,-0.3598,-0.3539,-0.3441,-0.3437,-0.3362,-0.3422,-0.3434,-0.3437,-0.3443,-0.3435,-0.3351,-0.335,-0.3348,-0.3347,0,-0.4475,-0.4458,-0.4373,-0.428,-0.4208,-0.4132,-0.4058,-0.4012,-0.3963,-0.3892,-0.3788,-0.3723,-0.3593,-0.349,-0.3388,-0.3338,-0.3334,-0.3329,-0.3307,-0.3315,-0.3336,-0.3325,-0.3541,-0.3334,-0.3335,-0.3336,-0.3337,-0.3338,-0.4359,-0.4288,-0.4212,-0.4117,-0.4058,-0.3989,-0.3916,-0.3868,-0.3781,-0.3675,-0.3657,-0.3546,-0.3466,-0.3329,-0.3276,-0.3187,-0.3205,-0.3172,-0.3164,-0.3157,-0.3154,-0.335,-0.3168,-0.3169,-0.3169,-0.3169,-0.3169,0,-0.4189,-0.4141,-0.4054,-0.3952,-0.3878,-0.3884,-0.3802,-0.3739,-0.3642,-0.3569,-0.3487,-0.3367,-0.3268,-0.3203,-0.3103,-0.3044,-0.304,-0.3019,-0.3023,-0.3012,-0.3143,-0.3173,-0.3025,-0.3025,-0.3025,-0.3025,-0.3025,-0.3025,-0.4092,-0.3973,-0.3948,-0.3799,-0.375,-0.3643,-0.3596,-0.3533,-0.3475,-0.3343,-0.3262,-0.3221,-0.315,-0.3045,-0.2955,-0.2938,-0.2902,-0.288,-0.2864,-0.2987,-0.3003,-0.3017,-0.3045,-0.2872,-0.2872,-0.2741,-0.274,-0.2739]}]]